User: anonymous   Login
Location: Unspecified
(0.0000°N, 0.0000°E)
Time: 10:49:11
(UTC+00:00)
Language:

SKYMED 3 - Orbit

View from above orbital plane
View from above orbital plane
View from above satellite
View from above satellite

Ground track
Ground track

The orbit data is extracted from the following two-line orbital elements,

1 33412U 08054A   18200.76455645  .00000216  00000-0  33727-4 0  9998
2 33412  97.8895  23.8774 0001356  91.0034 269.1334 14.82158307526543
Epoch (UTC): 19 July 2018 18:20:57
Eccentricity: 0.0001356
inclination: 97.8895°
perigee height: 621 km
apogee height: 623 km
right ascension of ascending node: 23.8774°
argument of perigee: 91.0034°
revolutions per day: 14.82158307
mean anomaly at epoch: 269.1334°
orbit number at epoch: 52654

The dashed part of the orbit path shows where the satellite is in the earth's shadow,  

DLR